| time (UTC) | temp F | wind direction | speed knots | gust knots | rain 1hr in | rain 24hr in | rain mn in | humidity % | barometer mb |
| 20260509164232 | 56 | 337 | 1.7 | 4.3 | 0.00 | 0.00 | 0.00 | 77 | 1020.9 |
| 20260509163730 | 55 | 359 | 1.7 | 3.5 | 0.00 | 0.00 | 0.00 | 78 | 1020.9 |
| 20260509163230 | 55 | 22 | 1.7 | 3.5 | 0.00 | 0.00 | 0.00 | 78 | 1021.2 |
| 20260509162732 | 55 | 325 | 1.7 | 2.6 | 0.00 | 0.00 | 0.00 | 77 | 1021.2 |
| 20260509162228 | 55 | 316 | 1.7 | 3.5 | 0.00 | 0.00 | 0.00 | 78 | 1021.2 |
| 20260509161724 | 55 | 337 | 1.7 | 3.5 | 0.00 | 0.00 | 0.00 | 78 | 1021.2 |
| 20260509161226 | 55 | 28 | 1.7 | 3.5 | 0.00 | 0.00 | 0.00 | 78 | 1021.2 |
| 20260509161007 | 54 | 20 | 1.7 | 2.6 | 0.00 | 0.00 | 0.00 | 80 | 1021.2 |
| 20260509160500 | 54 | 345 | 1.7 | 2.6 | 0.00 | 0.00 | 0.00 | 81 | 1021.4 |
| 20260509155715 | 53 | 21 | 2.6 | 3.5 | 0.00 | 0.00 | 0.00 | 82 | 1021.4 |
| 20260509155509 | 53 | 344 | 2.6 | 3.5 | 0.00 | 0.00 | 0.00 | 82 | 1021.4 |
| 20260509154713 | 53 | 323 | 1.7 | 3.5 | 0.00 | 0.00 | 0.00 | 82 | 1021.4 |
| 20260509154505 | 53 | 341 | 1.7 | 3.5 | 0.00 | 0.00 | 0.00 | 83 | 1021.4 |
| 20260509153953 | 52 | 19 | 1.7 | 2.6 | 0.00 | 0.00 | 0.00 | 83 | 1021.4 |
| 20260509153206 | 52 | 26 | 2.6 | 3.5 | 0.00 | 0.00 | 0.00 | 84 | 1021.7 |
| 20260509152704 | 52 | 333 | 2.6 | 3.5 | 0.00 | 0.00 | 0.00 | 84 | 1021.7 |
| 20260509152204 | 52 | 333 | 1.7 | 2.6 | 0.00 | 0.00 | 0.00 | 85 | 1021.7 |
| 20260509151702 | 52 | 338 | 2.6 | 3.5 | 0.00 | 0.00 | 0.00 | 85 | 1021.7 |
| 20260509151202 | 52 | 341 | 2.6 | 3.5 | 0.00 | 0.00 | 0.00 | 84 | 1021.7 |
| 20260509150703 | 52 | 359 | 1.7 | 3.5 | 0.00 | 0.00 | 0.00 | 84 | 1021.7 |
| 20260509150202 | 52 | 359 | 1.7 | 4.3 | 0.00 | 0.00 | 0.00 | 84 | 1021.7 |
| 20260509145708 | 52 | 30 | 2.6 | 4.3 | 0.00 | 0.00 | 0.00 | 84 | 1021.7 |
| 20260509145201 | 52 | 57 | 1.7 | 4.3 | 0.00 | 0.00 | 0.00 | 85 | 1021.7 |
| 20260509144701 | 52 | 118 | 1.7 | 4.3 | 0.00 | 0.00 | 0.00 | 86 | 1021.8 |
| 20260509144202 | 51 | 97 | 2.6 | 4.3 | 0.00 | 0.00 | 0.00 | 87 | 1021.8 |
| 20260509143701 | 51 | 169 | 3.5 | 6.1 | 0.00 | 0.00 | 0.00 | 88 | 1021.8 |
| 20260509143201 | 51 | 88 | 3.5 | 6.1 | 0.00 | 0.00 | 0.00 | 87 | 1021.8 |
| 20260509142702 | 51 | 82 | 1.7 | 4.3 | 0.00 | 0.00 | 0.00 | 88 | 1021.8 |
| 20260509142444 | 51 | 113 | 1.7 | 5.2 | 0.00 | 0.00 | 0.00 | 88 | 1021.8 |
| 20260509141659 | 51 | 69 | 2.6 | 5.2 | 0.00 | 0.00 | 0.00 | 88 | 1021.7 |
| 20260509141158 | 51 | 111 | 2.6 | 5.2 | 0.00 | 0.00 | 0.00 | 88 | 1021.7 |
| 20260509140657 | 51 | 69 | 3.5 | 5.2 | 0.00 | 0.00 | 0.00 | 88 | 1021.7 |
| 20260509140156 | 51 | 86 | 3.5 | 4.3 | 0.00 | 0.00 | 0.00 | 88 | 1021.7 |
| 20260509135656 | 51 | 92 | 3.5 | 6.1 | 0.00 | 0.00 | 0.00 | 88 | 1021.7 |
| 20260509135434 | 51 | 78 | 3.5 | 6.1 | 0.00 | 0.00 | 0.00 | 89 | 1021.7 |
| 20260509134655 | 51 | 87 | 1.7 | 5.2 | 0.00 | 0.00 | 0.00 | 89 | 1021.6 |
| 20260509134157 | 51 | 90 | 0.9 | 3.5 | 0.00 | 0.00 | 0.00 | 90 | 1021.6 |
| 20260509133656 | 50 | 42 | 0.9 | 2.6 | 0.00 | 0.00 | 0.00 | 90 | 1021.6 |
| 20260509133147 | 50 | 14 | 1.7 | 2.6 | 0.00 | 0.00 | 0.00 | 90 | 1021.7 |
| 20260509132633 | 50 | 22 | 1.7 | 2.6 | 0.00 | 0.00 | 0.00 | 89 | 1021.7 |
| 20260509132413 | 50 | 359 | 1.7 | 2.6 | 0.00 | 0.00 | 0.00 | 89 | 1021.7 |
| 20260509131630 | 50 | 4 | 1.7 | 2.6 | 0.00 | 0.00 | 0.00 | 89 | 1021.7 |
| 20260509131126 | 50 | 17 | 1.7 | 2.6 | 0.00 | 0.00 | 0.00 | 89 | 1021.7 |
| 20260509130626 | 50 | 9 | 1.7 | 1.7 | 0.00 | 0.00 | 0.00 | 89 | 1021.7 |
| 20260509130338 | 50 | 9 | 0.9 | 2.6 | 0.00 | 0.00 | 0.00 | 89 | 1021.7 |
| 20260509125842 | 50 | 4 | 1.7 | 2.6 | 0.00 | 0.00 | 0.00 | 88 | 1021.7 |
| 20260509125104 | 50 | 359 | 1.7 | 2.6 | 0.00 | 0.00 | 0.00 | 88 | 1021.7 |
| 20260509124846 | 50 | 359 | 1.7 | 3.5 | 0.00 | 0.00 | 0.00 | 88 | 1021.7 |
| 20260509124101 | 50 | 359 | 1.7 | 3.5 | 0.00 | 0.00 | 0.00 | 88 | 1021.7 |
| 20260509123602 | 50 | 15 | 1.7 | 3.5 | 0.00 | 0.00 | 0.00 | 88 | 1021.7 |
| 20260509123103 | 50 | 13 | 1.7 | 3.5 | 0.00 | 0.00 | 0.00 | 88 | 1021.7 |
| 20260509122600 | 51 | 9 | 1.7 | 2.6 | 0.00 | 0.00 | 0.00 | 87 | 1021.7 |
| 20260509122058 | 51 | 344 | 1.7 | 3.5 | 0.00 | 0.00 | 0.00 | 87 | 1021.7 |
| 20260509121555 | 51 | 349 | 2.6 | 3.5 | 0.00 | 0.00 | 0.00 | 87 | 1021.7 |
| 20260509121039 | 51 | 353 | 2.6 | 3.5 | 0.00 | 0.00 | 0.00 | 87 | 1021.7 |
| 20260509120539 | 51 | 340 | 2.6 | 3.5 | 0.00 | 0.00 | 0.00 | 87 | 1021.8 |
| 20260509120309 | 51 | 350 | 1.7 | 3.5 | 0.00 | 0.00 | 0.00 | 87 | 1021.8 |
| 20260509115825 | 51 | 359 | 1.7 | 2.6 | 0.00 | 0.00 | 0.00 | 87 | 1021.8 |
| 20260509115256 | 51 | 359 | 1.7 | 2.6 | 0.00 | 0.00 | 0.00 | 87 | 1022.0 |
| 20260509114503 | 51 | 9 | 1.7 | 2.6 | 0.00 | 0.00 | 0.00 | 87 | 1022.0 |
| 20260509114002 | 51 | 359 | 0.9 | 2.6 | 0.00 | 0.00 | 0.00 | 87 | 1022.0 |
| 20260509113505 | 51 | 359 | 0.9 | 1.7 | 0.00 | 0.00 | 0.00 | 87 | 1022.2 |
| 20260509113005 | 51 | 359 | 0.9 | 1.7 | 0.00 | 0.00 | 0.00 | 87 | 1022.2 |
| 20260509112503 | 51 | 359 | 0.9 | 1.7 | 0.00 | 0.00 | 0.00 | 87 | 1022.2 |
| 20260509111959 | 51 | 359 | 0.9 | 1.7 | 0.00 | 0.00 | 0.00 | 87 | 1022.3 |
| 20260509111436 | 51 | 359 | 0.9 | 1.7 | 0.00 | 0.00 | 0.00 | 87 | 1022.3 |
| 20260509110934 | 51 | 359 | 0.9 | 1.7 | 0.00 | 0.00 | 0.00 | 87 | 1022.3 |
| 20260509110441 | 51 | 359 | 0.9 | 1.7 | 0.00 | 0.00 | 0.00 | 87 | 1022.3 |
| 20260509105416 | 51 | 359 | 0.0 | 0.9 | 0.00 | 0.00 | 0.00 | 87 | 1022.3 |
| 20260509104912 | 51 | 359 | 0.9 | 1.7 | 0.00 | 0.00 | 0.00 | 87 | 1022.3 |
| 20260509104406 | 51 | 359 | 1.7 | 2.6 | 0.00 | 0.00 | 0.00 | 87 | 1022.3 |
| 20260509103904 | 51 | 359 | 0.9 | 2.6 | 0.00 | 0.00 | 0.00 | 87 | 1022.3 |
| 20260509103403 | 51 | 359 | 0.9 | 2.6 | 0.00 | 0.00 | 0.00 | 87 | 1022.3 |
| 20260509103134 | 51 | 9 | 0.9 | 2.6 | 0.00 | 0.00 | 0.00 | 87 | 1022.3 |
| 20260509102639 | 51 | 9 | 0.9 | 2.6 | 0.00 | 0.00 | 0.00 | 87 | 1022.3 |
| 20260509101902 | 51 | 355 | 0.0 | 0.9 | 0.00 | 0.00 | 0.00 | 86 | 1022.3 |
| 20260509101405 | 51 | 355 | 0.0 | 0.9 | 0.00 | 0.00 | 0.00 | 86 | 1022.3 |
| 20260509100907 | 51 | 355 | 0.9 | 1.7 | 0.00 | 0.00 | 0.00 | 86 | 1022.3 |
| 20260509100402 | 51 | 355 | 0.9 | 1.7 | 0.00 | 0.00 | 0.00 | 86 | 1022.3 |
| 20260509095902 | 51 | 355 | 0.0 | 0.0 | 0.00 | 0.00 | 0.00 | 86 | 1022.3 |
| 20260509095403 | 51 | 355 | 0.0 | 0.0 | 0.00 | 0.00 | 0.00 | 86 | 1022.3 |
| 20260509094847 | 51 | 355 | 0.0 | 0.0 | 0.00 | 0.00 | 0.00 | 86 | 1022.3 |
| 20260509094341 | 51 | 355 | 0.0 | 0.9 | 0.00 | 0.00 | 0.00 | 86 | 1022.3 |
| 20260509093837 | 51 | 355 | 0.9 | 1.7 | 0.00 | 0.00 | 0.00 | 86 | 1022.3 |
| 20260509093331 | 51 | 355 | 1.7 | 1.7 | 0.00 | 0.00 | 0.00 | 85 | 1022.3 |
| 20260509092829 | 51 | 355 | 1.7 | 2.6 | 0.00 | 0.00 | 0.00 | 85 | 1022.3 |
| 20260509092329 | 51 | 355 | 1.7 | 2.6 | 0.00 | 0.00 | 0.00 | 85 | 1022.3 |
| 20260509091846 | 52 | 9 | 0.9 | 2.6 | 0.00 | 0.00 | 0.00 | 85 | 1022.5 |
| 20260509090830 | 52 | 296 | 0.0 | 1.7 | 0.00 | 0.00 | 0.00 | 85 | 1022.5 |
| 20260509090325 | 52 | 296 | 0.9 | 1.7 | 0.00 | 0.00 | 0.00 | 85 | 1022.7 |
| 20260509085826 | 52 | 296 | 0.9 | 2.6 | 0.00 | 0.00 | 0.00 | 85 | 1022.7 |
| 20260509085317 | 52 | 298 | 0.9 | 2.6 | 0.00 | 0.00 | 0.00 | 85 | 1022.7 |
| 20260509084812 | 52 | 283 | 0.9 | 2.6 | 0.00 | 0.00 | 0.00 | 86 | 1022.8 |
| 20260509084303 | 52 | 246 | 1.7 | 2.6 | 0.00 | 0.00 | 0.00 | 86 | 1022.8 |
| 20260509084042 | 52 | 232 | 1.7 | 2.6 | 0.00 | 0.00 | 0.00 | 86 | 1022.8 |
| 20260509083305 | 52 | 256 | 0.9 | 2.6 | 0.00 | 0.00 | 0.00 | 86 | 1022.8 |
| 20260509082804 | 51 | 256 | 0.0 | 2.6 | 0.00 | 0.00 | 0.00 | 87 | 1022.8 |
| 20260509082306 | 51 | 36 | 0.0 | 0.9 | 0.00 | 0.00 | 0.00 | 87 | 1022.8 |
| 20260509081806 | 51 | 36 | 0.9 | 0.9 | 0.00 | 0.00 | 0.00 | 87 | 1022.8 |
| 20260509081303 | 51 | 36 | 0.0 | 0.9 | 0.00 | 0.00 | 0.00 | 87 | 1022.8 |
| 20260509080802 | 51 | 36 | 0.0 | 1.7 | 0.00 | 0.00 | 0.00 | 86 | 1022.8 |
| 20260509080301 | 51 | 36 | 0.9 | 1.7 | 0.00 | 0.00 | 0.00 | 86 | 1022.8 |
| 20260509075825 | 51 | 36 | 0.9 | 1.7 | 0.00 | 0.00 | 0.00 | 87 | 1022.8 |
| 20260509074804 | 51 | 36 | 0.0 | 0.0 | 0.00 | 0.00 | 0.00 | 86 | 1022.8 |
| 20260509074305 | 51 | 36 | 0.0 | 0.9 | 0.00 | 0.00 | 0.00 | 86 | 1022.8 |
| 20260509073754 | 51 | 36 | 0.9 | 1.7 | 0.00 | 0.00 | 0.00 | 86 | 1022.8 |
| 20260509073245 | 51 | 36 | 0.9 | 1.7 | 0.00 | 0.00 | 0.00 | 85 | 1022.8 |
| 20260509072742 | 51 | 36 | 0.0 | 0.9 | 0.00 | 0.00 | 0.00 | 85 | 1022.8 |
| 20260509072526 | 51 | 36 | 0.0 | 0.9 | 0.00 | 0.00 | 0.00 | 84 | 1022.8 |
| 20260509071731 | 51 | 36 | 0.0 | 1.7 | 0.00 | 0.00 | 0.00 | 84 | 1022.7 |
| 20260509071232 | 52 | 36 | 0.9 | 1.7 | 0.00 | 0.00 | 0.00 | 84 | 1022.7 |
| 20260509070731 | 52 | 36 | 0.0 | 0.9 | 0.00 | 0.00 | 0.00 | 84 | 1022.7 |
| 20260509070230 | 52 | 27 | 0.9 | 1.7 | 0.00 | 0.00 | 0.00 | 84 | 1022.6 |
| 20260509065729 | 52 | 27 | 0.9 | 1.7 | 0.00 | 0.00 | 0.00 | 83 | 1022.6 |
| 20260509065231 | 52 | 65 | 0.0 | 2.6 | 0.00 | 0.00 | 0.00 | 83 | 1022.6 |
| 20260509064729 | 52 | 65 | 0.9 | 2.6 | 0.00 | 0.00 | 0.00 | 82 | 1022.3 |
| 20260509064226 | 52 | 61 | 0.9 | 2.6 | 0.00 | 0.00 | 0.00 | 82 | 1022.3 |
| 20260509063724 | 53 | 341 | 1.7 | 2.6 | 0.00 | 0.00 | 0.00 | 81 | 1022.3 |
| 20260509063218 | 53 | 328 | 0.9 | 2.6 | 0.00 | 0.00 | 0.00 | 81 | 1022.3 |
| 20260509062713 | 53 | 359 | 0.9 | 1.7 | 0.00 | 0.00 | 0.00 | 80 | 1022.3 |
| 20260509062211 | 53 | 333 | 0.0 | 0.9 | 0.00 | 0.00 | 0.00 | 80 | 1022.3 |
| 20260509061705 | 53 | 333 | 0.9 | 2.6 | 0.00 | 0.00 | 0.00 | 80 | 1022.3 |
| 20260509061202 | 53 | 333 | 1.7 | 2.6 | 0.00 | 0.00 | 0.00 | 79 | 1022.3 |
| 20260509060653 | 54 | 329 | 1.7 | 2.6 | 0.00 | 0.00 | 0.00 | 79 | 1022.3 |
| 20260509060154 | 54 | 325 | 1.7 | 2.6 | 0.00 | 0.00 | 0.00 | 77 | 1022.3 |
| 20260509055659 | 54 | 37 | 1.7 | 2.6 | 0.00 | 0.00 | 0.00 | 77 | 1022.3 |
| 20260509055153 | 54 | 69 | 0.9 | 1.7 | 0.00 | 0.00 | 0.00 | 77 | 1022.3 |
| 20260509054654 | 54 | 183 | 0.9 | 2.6 | 0.00 | 0.00 | 0.00 | 76 | 1022.3 |
| 20260509054138 | 54 | 254 | 0.9 | 3.5 | 0.00 | 0.00 | 0.00 | 76 | 1022.3 |
| 20260509053641 | 54 | 304 | 0.9 | 3.5 | 0.00 | 0.00 | 0.00 | 76 | 1022.3 |
| 20260509053135 | 54 | 280 | 0.9 | 2.6 | 0.00 | 0.00 | 0.00 | 76 | 1022.3 |
| 20260509052634 | 54 | 280 | 1.7 | 2.6 | 0.00 | 0.00 | 0.00 | 76 | 1022.3 |
| 20260509052133 | 54 | 308 | 1.7 | 4.3 | 0.00 | 0.00 | 0.00 | 76 | 1022.3 |
| 20260509051635 | 55 | 311 | 2.6 | 4.3 | 0.00 | 0.00 | 0.00 | 76 | 1022.3 |
| 20260509051135 | 55 | 317 | 2.6 | 4.3 | 0.00 | 0.00 | 0.00 | 76 | 1022.3 |
| 20260509050637 | 55 | 334 | 3.5 | 5.2 | 0.00 | 0.00 | 0.00 | 76 | 1022.3 |
| 20260509050420 | 55 | 334 | 3.5 | 5.2 | 0.00 | 0.00 | 0.00 | 75 | 1022.2 |
| 20260509045631 | 55 | 323 | 3.5 | 6.1 | 0.00 | 0.00 | 0.00 | 75 | 1022.2 |
| 20260509045133 | 55 | 298 | 3.5 | 6.1 | 0.00 | 0.00 | 0.00 | 75 | 1022.2 |
| 20260509044631 | 55 | 325 | 2.6 | 5.2 | 0.00 | 0.00 | 0.00 | 74 | 1021.9 |
| 20260509044131 | 55 | 304 | 2.6 | 6.1 | 0.00 | 0.00 | 0.00 | 74 | 1021.9 |
| 20260509043631 | 55 | 340 | 2.6 | 6.1 | 0.00 | 0.00 | 0.00 | 73 | 1021.9 |
| 20260509043129 | 56 | 327 | 2.6 | 5.2 | 0.00 | 0.00 | 0.00 | 73 | 1021.8 |
| 20260509042624 | 56 | 325 | 2.6 | 5.2 | 0.00 | 0.00 | 0.00 | 73 | 1021.8 |
| 20260509042117 | 56 | 322 | 3.5 | 5.2 | 0.00 | 0.00 | 0.00 | 73 | 1021.8 |
| 20260509041616 | 56 | 303 | 4.3 | 9.6 | 0.00 | 0.00 | 0.00 | 72 | 1021.8 |
| 20260509041115 | 56 | 296 | 5.2 | 9.6 | 0.00 | 0.00 | 0.00 | 72 | 1021.8 |
| 20260509040613 | 56 | 316 | 5.2 | 9.6 | 0.00 | 0.00 | 0.00 | 72 | 1021.8 |
| 20260509040114 | 56 | 332 | 5.2 | 9.6 | 0.00 | 0.00 | 0.00 | 72 | 1021.7 |
| 20260509035611 | 56 | 313 | 6.1 | 11.3 | 0.00 | 0.00 | 0.00 | 72 | 1021.7 |
| 20260509035112 | 56 | 262 | 6.1 | 11.3 | 0.00 | 0.00 | 0.00 | 71 | 1021.7 |
| 20260509034638 | 56 | 305 | 6.1 | 9.6 | 0.00 | 0.00 | 0.00 | 71 | 1021.7 |
| 20260509033903 | 56 | 304 | 6.1 | 11.3 | 0.00 | 0.00 | 0.00 | 69 | 1021.7 |
| 20260509033110 | 56 | 313 | 7.0 | 12.2 | 0.00 | 0.00 | 0.00 | 69 | 1021.6 |
| 20260509032856 | 57 | 309 | 6.1 | 12.2 | 0.00 | 0.00 | 0.00 | 68 | 1021.6 |
| 20260509032109 | 57 | 325 | 5.2 | 8.7 | 0.00 | 0.00 | 0.00 | 68 | 1021.6 |
| 20260509031605 | 57 | 291 | 5.2 | 11.3 | 0.00 | 0.00 | 0.00 | 68 | 1021.5 |
| 20260509031105 | 57 | 300 | 4.3 | 11.3 | 0.00 | 0.00 | 0.00 | 68 | 1021.5 |
| 20260509030605 | 57 | 320 | 5.2 | 11.3 | 0.00 | 0.00 | 0.00 | 68 | 1021.5 |
| 20260509030114 | 57 | 259 | 6.1 | 11.3 | 0.00 | 0.00 | 0.00 | 67 | 1021.4 |
| 20260509025610 | 57 | 275 | 5.2 | 11.3 | 0.00 | 0.00 | 0.00 | 67 | 1021.4 |
| 20260509025357 | 57 | 311 | 6.1 | 11.3 | 0.00 | 0.00 | 0.00 | 66 | 1021.3 |
| 20260509024607 | 57 | 297 | 7.0 | 12.2 | 0.00 | 0.00 | 0.00 | 66 | 1021.3 |
| 20260509024105 | 57 | 316 | 7.8 | 12.2 | 0.00 | 0.00 | 0.00 | 66 | 1021.3 |
| 20260509023559 | 58 | 309 | 7.8 | 13.0 | 0.00 | 0.00 | 0.00 | 64 | 1021.3 |
| 20260509023130 | 58 | 289 | 7.8 | 13.0 | 0.00 | 0.00 | 0.00 | 64 | 1021.2 |
| 20260509022101 | 59 | 296 | 6.1 | 11.3 | 0.00 | 0.00 | 0.00 | 63 | 1021.2 |
| 20260509021604 | 59 | 323 | 7.0 | 11.3 | 0.00 | 0.00 | 0.00 | 63 | 1021.2 |
| 20260509021412 | 59 | 294 | 7.8 | 12.2 | 0.00 | 0.00 | 0.00 | 62 | 1021.2 |
| 20260509020347 | 59 | 323 | 5.2 | 9.6 | 0.00 | 0.00 | 0.00 | 60 | 1021.2 |
| 20260509015556 | 59 | 277 | 6.1 | 9.6 | 0.00 | 0.00 | 0.00 | 61 | 1021.2 |
| 20260509015054 | 59 | 302 | 7.8 | 12.2 | 0.00 | 0.00 | 0.00 | 61 | 1021.2 |
| 20260509014555 | 59 | 262 | 7.8 | 13.0 | 0.00 | 0.00 | 0.00 | 61 | 1021.2 |
| 20260509014056 | 59 | 308 | 7.0 | 13.0 | 0.00 | 0.00 | 0.00 | 60 | 1021.2 |
| 20260509013553 | 59 | 275 | 7.0 | 13.0 | 0.00 | 0.00 | 0.00 | 60 | 1021.2 |
| 20260509013123 | 59 | 328 | 7.8 | 13.0 | 0.00 | 0.00 | 0.00 | 60 | 1021.2 |
| 20260509012052 | 59 | 314 | 7.0 | 13.0 | 0.00 | 0.00 | 0.00 | 61 | 1021.3 |
| 20260509011552 | 59 | 313 | 7.8 | 13.9 | 0.00 | 0.00 | 0.00 | 61 | 1021.3 |
| 20260509011051 | 59 | 306 | 8.7 | 13.9 | 0.00 | 0.00 | 0.00 | 61 | 1021.3 |
| 20260509010545 | 59 | 275 | 9.6 | 14.8 | 0.00 | 0.00 | 0.00 | 61 | 1021.2 |
| 20260509010040 | 59 | 297 | 9.6 | 14.8 | 0.00 | 0.00 | 0.00 | 58 | 1021.2 |
| 20260509005540 | 60 | 270 | 7.8 | 13.9 | 0.00 | 0.00 | 0.00 | 58 | 1021.2 |
| 20260509005324 | 60 | 317 | 7.8 | 13.0 | 0.00 | 0.00 | 0.00 | 58 | 1021.2 |
| 20260509004536 | 60 | 321 | 7.8 | 12.2 | 0.00 | 0.00 | 0.00 | 57 | 1021.2 |
| 20260509004035 | 60 | 297 | 7.8 | 13.0 | 0.00 | 0.00 | 0.00 | 58 | 1021.2 |
| 20260509003537 | 60 | 307 | 7.0 | 13.0 | 0.00 | 0.00 | 0.00 | 57 | 1021.2 |
| 20260509003036 | 60 | 323 | 7.0 | 13.0 | 0.00 | 0.00 | 0.00 | 57 | 1021.2 |
| 20260509002818 | 60 | 315 | 7.0 | 12.2 | 0.00 | 0.00 | 0.00 | 56 | 1021.2 |
| 20260509002032 | 60 | 307 | 7.8 | 12.2 | 0.00 | 0.00 | 0.00 | 56 | 1021.2 |
| 20260509001536 | 60 | 344 | 7.0 | 12.2 | 0.00 | 0.00 | 0.00 | 56 | 1021.2 |
| 20260509001033 | 60 | 281 | 8.7 | 16.5 | 0.00 | 0.00 | 0.00 | 55 | 1021.2 |
| 20260509000534 | 60 | 285 | 9.6 | 16.5 | 0.00 | 0.00 | 0.00 | 55 | 1021.2 |
| 20260509000032 | 61 | 258 | 7.8 | 14.8 | 0.00 | 0.00 | 0.00 | 54 | 1021.2 |
| 20260508235532 | 61 | 282 | 7.8 | 12.2 | 0.00 | 0.00 | 0.00 | 53 | 1021.2 |
| 20260508235032 | 61 | 260 | 7.0 | 12.2 | 0.00 | 0.00 | 0.00 | 53 | 1021.1 |
| 20260508234532 | 62 | 265 | 5.2 | 12.2 | 0.00 | 0.00 | 0.00 | 54 | 1021.1 |
| 20260508234032 | 62 | 323 | 3.5 | 12.2 | 0.00 | 0.00 | 0.00 | 52 | 1021.1 |
| 20260508233530 | 61 | 243 | 2.6 | 6.1 | 0.00 | 0.00 | 0.00 | 53 | 1021.1 |
| 20260508233021 | 61 | 220 | 3.5 | 6.1 | 0.00 | 0.00 | 0.00 | 53 | 1021.1 |
| 20260508232803 | 61 | 250 | 4.3 | 8.7 | 0.00 | 0.00 | 0.00 | 54 | 1021.1 |
| 20260508232016 | 61 | 198 | 4.3 | 10.4 | 0.00 | 0.00 | 0.00 | 53 | 1021.1 |
| 20260508231516 | 61 | 165 | 4.3 | 10.4 | 0.00 | 0.00 | 0.00 | 54 | 1021.1 |
| 20260508231013 | 60 | 248 | 5.2 | 13.0 | 0.00 | 0.00 | 0.00 | 54 | 1021.1 |
| 20260508230513 | 60 | 175 | 6.1 | 13.0 | 0.00 | 0.00 | 0.00 | 54 | 1021.2 |
| 20260508230014 | 60 | 252 | 6.1 | 9.6 | 0.00 | 0.00 | 0.00 | 53 | 1021.2 |
| 20260508225513 | 60 | 253 | 6.1 | 13.0 | 0.00 | 0.00 | 0.00 | 53 | 1021.2 |
| 20260508225012 | 60 | 240 | 7.0 | 13.0 | 0.00 | 0.00 | 0.00 | 53 | 1021.1 |
| 20260508224514 | 60 | 221 | 7.0 | 13.0 | 0.00 | 0.00 | 0.00 | 53 | 1021.1 |
| 20260508224011 | 60 | 251 | 7.0 | 13.0 | 0.00 | 0.00 | 0.00 | 52 | 1021.1 |
| 20260508223510 | 60 | 198 | 5.2 | 13.0 | 0.00 | 0.00 | 0.00 | 52 | 1021.1 |
| 20260508223009 | 60 | 264 | 5.2 | 12.2 | 0.00 | 0.00 | 0.00 | 53 | 1021.1 |
| 20260508222510 | 60 | 267 | 4.3 | 11.3 | 0.00 | 0.00 | 0.00 | 52 | 1021.1 |
| 20260508222008 | 60 | 273 | 5.2 | 9.6 | 0.00 | 0.00 | 0.00 | 52 | 1021.2 |
| 20260508221750 | 60 | 209 | 5.2 | 11.3 | 0.00 | 0.00 | 0.00 | 53 | 1021.2 |
| 20260508221003 | 60 | 252 | 5.2 | 11.3 | 0.00 | 0.00 | 0.00 | 52 | 1021.2 |
| 20260508220502 | 60 | 208 | 6.1 | 13.9 | 0.00 | 0.00 | 0.00 | 53 | 1021.2 |
| 20260508220001 | 60 | 238 | 7.0 | 13.9 | 0.00 | 0.00 | 0.00 | 54 | 1021.2 |
| 20260508215503 | 60 | 217 | 5.2 | 12.2 | 0.00 | 0.00 | 0.00 | 52 | 1021.2 |
| 20260508215001 | 60 | 232 | 5.2 | 10.4 | 0.00 | 0.00 | 0.00 | 53 | 1021.2 |
| 20260508214502 | 60 | 205 | 4.3 | 10.4 | 0.00 | 0.00 | 0.00 | 52 | 1021.2 |
| 20260508214002 | 60 | 252 | 5.2 | 13.9 | 0.00 | 0.00 | 0.00 | 53 | 1021.2 |
| 20260508213506 | 60 | 178 | 5.2 | 13.9 | 0.00 | 0.00 | 0.00 | 52 | 1021.2 |
| 20260508213005 | 60 | 209 | 6.1 | 10.4 | 0.00 | 0.00 | 0.00 | 53 | 1021.2 |
| 20260508212503 | 59 | 304 | 6.1 | 10.4 | 0.00 | 0.00 | 0.00 | 51 | 1021.2 |
| 20260508212245 | 59 | 224 | 7.0 | 13.0 | 0.00 | 0.00 | 0.00 | 51 | 1021.0 |
| 20260508211501 | 59 | 246 | 7.8 | 13.0 | 0.00 | 0.00 | 0.00 | 51 | 1021.0 |
| 20260508211003 | 59 | 212 | 7.8 | 13.9 | 0.00 | 0.00 | 0.00 | 53 | 1021.0 |
| 20260508210743 | 59 | 188 | 7.0 | 13.9 | 0.00 | 0.00 | 0.00 | 51 | 1020.8 |
| 20260508210001 | 59 | 286 | 6.1 | 11.3 | 0.00 | 0.00 | 0.00 | 52 | 1020.8 |
| 20260508205529 | 59 | 231 | 7.0 | 12.2 | 0.00 | 0.00 | 0.00 | 52 | 1020.8 |
| 20260508204501 | 59 | 226 | 5.2 | 12.2 | 0.00 | 0.00 | 0.00 | 52 | 1020.8 |
| 20260508204002 | 59 | 240 | 5.2 | 11.3 | 0.00 | 0.00 | 0.00 | 52 | 1020.8 |
| 20260508203502 | 59 | 238 | 4.3 | 11.3 | 0.00 | 0.00 | 0.00 | 51 | 1020.7 |
| 20260508203250 | 58 | 232 | 4.3 | 10.4 | 0.00 | 0.00 | 0.00 | 54 | 1020.7 |
| 20260508202501 | 58 | 252 | 6.1 | 10.4 | 0.00 | 0.00 | 0.00 | 53 | 1020.7 |
| 20260508202004 | 58 | 206 | 6.1 | 12.2 | 0.00 | 0.00 | 0.00 | 53 | 1020.7 |
| 20260508201504 | 58 | 281 | 4.3 | 12.2 | 0.00 | 0.00 | 0.00 | 54 | 1020.7 |
| 20260508201005 | 58 | 244 | 3.5 | 9.6 | 0.00 | 0.00 | 0.00 | 55 | 1020.7 |
| 20260508200500 | 58 | 204 | 4.3 | 11.3 | 0.00 | 0.00 | 0.00 | 55 | 1020.7 |
| 20260508195957 | 57 | 256 | 6.1 | 11.3 | 0.00 | 0.00 | 0.00 | 55 | 1020.7 |
| 20260508195458 | 57 | 265 | 5.2 | 12.2 | 0.00 | 0.00 | 0.00 | 54 | 1020.7 |
| 20260508194958 | 57 | 234 | 5.2 | 12.2 | 0.00 | 0.00 | 0.00 | 54 | 1020.7 |
| 20260508194458 | 57 | 257 | 5.2 | 13.9 | 0.00 | 0.00 | 0.00 | 55 | 1020.7 |
| 20260508193959 | 57 | 183 | 6.1 | 13.9 | 0.00 | 0.00 | 0.00 | 57 | 1020.7 |
| 20260508193456 | 57 | 248 | 5.2 | 11.3 | 0.00 | 0.00 | 0.00 | 57 | 1020.7 |
| 20260508192958 | 56 | 214 | 6.1 | 12.2 | 0.00 | 0.00 | 0.00 | 58 | 1020.7 |
| 20260508192506 | 56 | 244 | 7.0 | 12.2 | 0.00 | 0.00 | 0.00 | 58 | 1020.7 |
| 20260508191947 | 56 | 205 | 6.1 | 12.2 | 0.00 | 0.00 | 0.00 | 59 | 1020.7 |
| 20260508191433 | 56 | 233 | 6.1 | 12.2 | 0.00 | 0.00 | 0.00 | 59 | 1020.7 |
| 20260508190933 | 56 | 215 | 7.0 | 13.0 | 0.00 | 0.00 | 0.00 | 59 | 1020.7 |
| 20260508190433 | 56 | 241 | 6.1 | 13.0 | 0.00 | 0.00 | 0.00 | 60 | 1020.7 |
| 20260508185931 | 56 | 271 | 5.2 | 10.4 | 0.00 | 0.00 | 0.00 | 60 | 1020.7 |
| 20260508185428 | 56 | 193 | 5.2 | 9.6 | 0.00 | 0.00 | 0.00 | 60 | 1020.7 |
| 20260508184929 | 55 | 215 | 4.3 | 13.0 | 0.00 | 0.00 | 0.00 | 62 | 1020.7 |
| 20260508184429 | 55 | 206 | 5.2 | 13.0 | 0.00 | 0.00 | 0.00 | 61 | 1020.7 |
| 20260508183932 | 55 | 259 | 5.2 | 11.3 | 0.00 | 0.00 | 0.00 | 61 | 1020.7 |
| 20260508183432 | 55 | 199 | 5.2 | 11.3 | 0.00 | 0.00 | 0.00 | 62 | 1020.7 |
| 20260508182934 | 55 | 271 | 5.2 | 12.2 | 0.00 | 0.00 | 0.00 | 62 | 1020.7 |
| 20260508182424 | 54 | 267 | 6.1 | 13.0 | 0.00 | 0.00 | 0.00 | 62 | 1020.7 |
| 20260508181909 | 54 | 214 | 7.0 | 13.0 | 0.00 | 0.00 | 0.00 | 63 | 1020.6 |
| 20260508181409 | 54 | 256 | 6.1 | 13.9 | 0.00 | 0.00 | 0.00 | 63 | 1020.6 |
| 20260508181206 | 54 | 244 | 4.3 | 13.9 | 0.00 | 0.00 | 0.00 | 63 | 1020.6 |
| 20260508180410 | 54 | 231 | 4.3 | 12.2 | 0.00 | 0.00 | 0.00 | 63 | 1020.6 |
| 20260508175911 | 53 | 256 | 5.2 | 12.2 | 0.00 | 0.00 | 0.00 | 63 | 1020.6 |
| 20260508175410 | 53 | 243 | 4.3 | 9.6 | 0.00 | 0.00 | 0.00 | 63 | 1020.6 |
| 20260508174908 | 53 | 223 | 3.5 | 8.7 | 0.00 | 0.00 | 0.00 | 64 | 1020.5 |
| 20260508174441 | 53 | 250 | 4.3 | 11.3 | 0.00 | 0.00 | 0.00 | 65 | 1020.5 |
| 20260508173428 | 53 | 267 | 5.2 | 13.0 | 0.00 | 0.00 | 0.00 | 64 | 1020.2 |
| 20260508172407 | 53 | 209 | 5.2 | 13.0 | 0.00 | 0.00 | 0.00 | 65 | 1020.2 |
| 20260508171904 | 53 | 245 | 5.2 | 13.0 | 0.00 | 0.00 | 0.00 | 64 | 1020.0 |
| 20260508171404 | 53 | 242 | 5.2 | 11.3 | 0.00 | 0.00 | 0.00 | 65 | 1020.0 |
| 20260508170933 | 53 | 197 | 5.2 | 11.3 | 0.00 | 0.00 | 0.00 | 65 | 1020.0 |
| 20260508165907 | 53 | 207 | 6.1 | 11.3 | 0.00 | 0.00 | 0.00 | 64 | 1020.0 |
| 20260508165403 | 53 | 222 | 6.1 | 11.3 | 0.00 | 0.00 | 0.00 | 63 | 1020.0 |